TimeCST,TemperatureF,Dew PointF,Humidity,Sea Level PressureIn,VisibilityMPH,Wind Direction,Wind SpeedMPH,Gust SpeedMPH,PrecipitationIn,Events,Conditions,WindDirDegrees,DateUTC
12:53 AM,36.0,28.9,76,30.39,10.0,Calm,Calm,-,N/A,,Clear,0,2012-11-16 06:53:00
1:53 AM,34.0,28.0,79,30.39,10.0,North,4.6,-,N/A,,Clear,360,2012-11-16 07:53:00
2:53 AM,33.1,28.0,82,30.39,10.0,NNW,3.5,-,N/A,,Clear,340,2012-11-16 08:53:00
3:53 AM,33.1,27.0,78,30.40,10.0,Calm,Calm,-,N/A,,Clear,0,2012-11-16 09:53:00
4:53 AM,32.0,28.0,85,30.40,10.0,Calm,Calm,-,N/A,,Clear,0,2012-11-16 10:53:00
6:53 AM,30.0,26.1,85,30.43,10.0,Calm,Calm,-,N/A,,Clear,0,2012-11-16 12:53:00
7:53 AM,35.1,28.9,78,30.45,10.0,Calm,Calm,-,N/A,,Clear,0,2012-11-16 13:53:00
8:53 AM,44.1,33.1,65,30.47,10.0,Calm,Calm,-,N/A,,Clear,0,2012-11-16 14:53:00
9:53 AM,54.0,32.0,43,30.46,10.0,ENE,5.8,-,N/A,,Clear,60,2012-11-16 15:53:00
10:53 AM,57.9,30.9,36,30.46,10.0,East,3.5,-,N/A,,Clear,100,2012-11-16 16:53:00
11:53 AM,60.1,30.0,32,30.44,10.0,ESE,5.8,-,N/A,,Clear,120,2012-11-16 17:53:00
12:53 PM,63.0,28.0,27,30.40,10.0,ENE,10.4,-,N/A,,Clear,70,2012-11-16 18:53:00
1:53 PM,64.0,28.0,26,30.38,10.0,East,6.9,-,N/A,,Clear,100,2012-11-16 19:53:00
2:53 PM,64.0,27.0,25,30.36,10.0,Variable,3.5,-,N/A,,Clear,0,2012-11-16 20:53:00
3:53 PM,64.0,28.0,26,30.36,10.0,ENE,5.8,-,N/A,,Clear,60,2012-11-16 21:53:00
4:53 PM,62.1,28.0,28,30.36,10.0,NE,4.6,-,N/A,,Clear,50,2012-11-16 22:53:00
5:53 PM,57.9,28.0,32,30.37,10.0,Calm,Calm,-,N/A,,Clear,0,2012-11-16 23:53:00
6:53 PM,51.1,28.9,43,30.39,10.0,Calm,Calm,-,N/A,,Clear,0,2012-11-17 00:53:00
7:53 PM,50.0,28.9,44,30.40,10.0,Calm,Calm,-,N/A,,Clear,0,2012-11-17 01:53:00
8:53 PM,44.1,28.9,55,30.41,10.0,Calm,Calm,-,N/A,,Clear,0,2012-11-17 02:53:00
9:53 PM,41.0,27.0,57,30.41,10.0,Calm,Calm,-,N/A,,Clear,0,2012-11-17 03:53:00
10:53 PM,37.9,28.9,70,30.41,10.0,Calm,Calm,-,N/A,,Clear,0,2012-11-17 04:53:00
11:53 PM,37.0,28.9,73,30.40,10.0,Calm,Calm,-,N/A,,Clear,0,2012-11-17 05:53:00